Zurück zum Katalog

SL-14 DEB

AktivPO
NORAD 45327·DEBRIS·🇷🇺 Russia

Gestartet Aug 15, 1991 von Plesetsk Cosmodrome

Loading…

Nächste Überflüge (nächste 24 Stunden)

TLE

AktuellSource: Space-Track

Epoche: Sep 14, 2026, 14:00 UTC

1 45327U 91056BR  26257.58379294  .00001194  00000-0  21050-2 0  9996
2 45327  82.5656  16.7127 0073809 344.9859  14.9085 13.41005410321516

Verfolge SL-14 DEB in Echtzeit mit AllMySat

Download on the App Store